Regional Weather Roundup
Issued by NWS Green Bay, WI

Home | Current Version | Previous Version | Text Only | Print | Product List | Glossary On
Versions: 1 2 3 4 5 6 7 8 9 10 11 12 13 14 15 16 17 18 19 20 21 22 23 24 25 26 27 28 29 30 31 32 33 34 35 36 37 38 39 40 41 42 43 44 45 46 47 48 49 50
000
ASUS43 KGRB 301359
RWRGRB

NORTH-CENTRAL AND NORTHEAST WISCONSIN REGIONAL WEATHER ROUNDUP
NATIONAL WEATHER SERVICE GREEN BAY WI
800 AM CST FRI JAN 30 2015

WIZ005-009-010>012-018-019-301500-
NORTH CENTRAL WISCONSIN

CITY           SKY/WX    TMP DP  RH WIND       PRES   REMARKS
IRONWOOD       CLOUDY    10   3  72 W6        30.41S WCI   1
MANITOWISH WTR NOT AVBL
ARBOR VITAE    NOT AVBL
EAGLE RIVER    NOT AVBL
LAND O LAKES   NOT AVBL
RHINELANDER    CLOUDY     9   2  73 W7        30.41R WCI  -2
PHILLIPS       NOT AVBL
ANTIGO         NOT AVBL
TOMAHAWK       NOT AVBL
MERRILL        NOT AVBL
$$

WIZ013-073-301500-
NORTHEAST WISCONSIN

CITY           SKY/WX    TMP DP  RH WIND       PRES   REMARKS
IRON MOUNTAIN  CLOUDY     8  -1  66 NW5       30.43S WCI   0
MARINETTE      CLOUDY    12   1  62 N7        30.49S WCI   2
$$

WIZ017-030-035>037-045-301500-
CENTRAL WISCONSIN

CITY           SKY/WX    TMP DP  RH WIND       PRES   REMARKS
MEDFORD        NOT AVBL
WAUSAU         CLOUDY    10   2  69 NW3       30.45R
MOSINEE        CLEAR      7   3  85 NW5       30.47R WCI  -2
MARSHFIELD     PTCLDY     7   1  76 NW7       30.46S WCI  -5
WISC RAPIDS    MOCLDY    10   3  73 W3        30.50S
STEVENS POINT  NOT AVBL
WAUPACA        NOT AVBL
SHAWANO        NOT AVBL
CLINTONVILLE   NOT AVBL
$$

WIZ038-039-048-051-301500-
FOX VALLEY

CITY           SKY/WX    TMP DP  RH WIND       PRES   REMARKS
NWS GREEN BAY  CLOUDY    14   6  70 NW3       30.49S
APPLETON       MOCLDY    12   1  62 NW5       30.49R WCI   4
OSHKOSH        CLEAR     13   3  64 NW5       30.49R WCI   5
FOND DU LAC    FLURRIES  12   2  64 NW6       30.49R WCI   3
$$

WIZ022-050-052-301500-
EAST CENTRAL WISCONSIN

CITY           SKY/WX    TMP DP  RH WIND       PRES   REMARKS
STURGEON BAY   CLOUDY    12   1  62 N8        30.51R WCI   1
MANITOWOC      NOT AVBL
SHEBOYGAN      CLEAR     13   7  77 NW3       30.49R
$$

LMZ563-521-522-541>543-301500-
LAKESHORE

STATION/POSITION TIME  TEMP    WIND        PRES    VSBY  WAVE
                       AIR SEA DIR/SP/G                  HT/PER
                 (UTC) (F)     (DEG/KT/KT) (MB)    (MI)  (FT/S)
SHEBOYGAN LKSHOR 1300   18     350/ 13/ 16 1033.8R
KEWAUNEE LKSHORE 1300   12     360/  5/  8 1031.9R
TWO RIVERS CG    1300   13                 1032.4          1
NORTHPORT PIER   1300   14     310/ 14/ 20 1031.8R
SISTER BAY LKSHO 1300   12     360/ 12/ 14   N/A
STURGEON BAY CG  1300    9     310/  3     1032.4      6   1
CHAMBERS ISLAND  1300   13     330/ 11/ 13 1032.2S
MENOMINEE LKSHOR 1300   12     350/  9     1033.2R
$$


USA.gov is the U.S. government's official web portal to all federal, state and local government web resources and services.